User: anonymous   Login
Location: Caltech
(34.1382°N, 118.1253°W)
Time: 07:00:32
(UTC-08:00)
Language:

Cosmos 1758 Rocket - Orbit

View from above orbital plane
View from above orbital plane
View from above satellite
View from above satellite

Ground track
Ground track

The orbit data is extracted from the following two-line orbital elements,

1 16792U 86046B   17016.85093021  .00000085  00000-0  74017-5 0  9999
2 16792  82.4836 344.7986 0025776  72.5707 305.4695 14.83111750652459
Epoch (UTC): 16 January 2017 20:25:20
Eccentricity: 0.0025776
inclination: 82.4836°
perigee height: 601 km
apogee height: 637 km
right ascension of ascending node: 344.7986°
argument of perigee: 72.5707°
revolutions per day: 14.83111750
mean anomaly at epoch: 305.4695°
orbit number at epoch: 65245

The dashed part of the orbit path shows where the satellite is in the earth's shadow,  

DLR